Location: Bella Coola
(52.3721°N, 126.7539°W)
Time: 19:33:29
(UTC-07:00)

ISS - Pass Details

Date: 24 May 2019
Orbit: 408 x 418 km, 51.6° (Epoch: 17 June)

Event Time Altitude Azimuth Distance (km) Brightness Sun altitude
Rises 01:18:09 0° 282° (WNW) 2,365 0.2 -16.9°
Reaches altitude 10° 01:20:20 10° 273° (W) 1,501 -0.9 -16.9°
Enters shadow 01:22:48 33° 234° (SW) 731 -2.9 -16.9°
